Flag for France Weather past 2 weeks in Marigot, Saint Martin, France

Now
77 °F

Passing clouds.


Feels Like: 79 °F
Forecast: 76 / 81 °F
Wind: 10 mph from East

Location: Juliana Airport - Saint Maarten

Current Time: Mar 4, 2015 at 12:01:17 AM

Latest Report: Mar 3, 2015 at 11:00 PM


Visibility: N/A

Pressure: 30.07 "Hg

Humidity: 74%

Dew point: 68 °F

Location of MarigotLocation

Historic Weather in Marigot — Graph

°F

Marigot temperature yesterday

Maximum temperature yesterday: 82 °F (at 2:00 PM)
Minimum temperature yesterday: 75 °F (at 5:00 PM)
Average temperature yesterday: 78 °F

Past Weeks' High & Low Weather Summary

 TemperatureHumidityPressure
High84 °F (Feb 17, 3:00 PM)89% (Feb 19, 7:00 AM)30.15 "Hg (Feb 19, 7:00 AM)
Low75 °F (Feb 19, 7:00 AM)55% (Feb 19, 2:00 PM)29.95 "Hg (Feb 19, 3:00 PM)
Average79 °F70%30.05 "Hg
* Reported Feb 16 11:00 PM — Mar 3 11:00 PM, Marigot, Weather by CustomWeather, © 2015

Note: Actual official high and low records may vary slightly from our data, if they occured in-between our weather recording intervals... More about our weather records

Advertising

Marigot weather history for previous 24 hours

 ConditionsComfort  
Time TempWeatherWind HumidityBarometerVisibility
11:00 PM
Tue, Mar 3
77 °FPassing clouds.10 mph74%30.07 "HgN/A
10:00 PM75 °FPassing clouds.10 mph74%30.07 "HgN/A
9:00 PM77 °FPassing clouds.15 mph65%30.07 "HgN/A
8:00 PM75 °FPassing clouds.16 mph74%30.07 "HgN/A
7:00 PM75 °FScattered showers. Passing clouds.14 mph74%30.04 "HgN/A
6:00 PM75 °FScattered showers. Passing clouds.16 mph78%30.01 "HgN/A
5:00 PM75 °FSprinkles. Broken clouds.14 mph78%30.01 "HgN/A
4:39 PM77 °FSprinkles. Scattered clouds.16 mph74%30.01 "HgN/A
4:00 PM77 °FScattered showers. Scattered clouds.8 mph74%30.01 "HgN/A
3:00 PM82 °FScattered showers. Scattered clouds.16 mph55%30.01 "HgN/A
2:00 PM82 °FScattered clouds.14 mph58%30.04 "HgN/A
1:00 PM81 °FPartly sunny.16 mph62%30.04 "HgN/A
12:00 PM81 °FScattered clouds.17 mph62%30.07 "HgN/A
11:00 AM81 °FScattered clouds.17 mph58%30.07 "HgN/A
10:00 AM81 °FScattered clouds.14 mph58%30.07 "HgN/A
9:00 AM81 °FScattered clouds.14 mph62%30.07 "HgN/A
8:00 AM79 °FPassing clouds.13 mph65%30.04 "HgN/A
7:00 AM77 °FPassing clouds.12 mph69%30.01 "HgN/A
6:00 AM77 °FPassing clouds.10 mph69%30.01 "HgN/A
5:00 AM77 °FPassing clouds.12 mph69%29.98 "HgN/A
4:00 AM77 °FPassing clouds.10 mph69%29.98 "HgN/A
2:00 AM77 °FPassing clouds.9 mph69%30.01 "HgN/A
12:00 AM77 °FPassing clouds.15 mph74%30.04 "HgN/A
Weather by CustomWeather, © 2015

See weather overviewHow to use our weather pages